Regional Weather Roundup
Issued by NWS

Home | Current Version | Previous Version | Text Only | Print | Product List | Glossary Off
Versions: 1 2 3 4 5 6 7 8 9 10 11 12 13 14 15 16 17 18 19 20 21 22 23 24 25 26 27 28 29 30 31 32 33 34 35 36 37 38 39 40 41 42 43 44 45 46 47 48 49 50

000
ASUS45 KABQ 290510
RWRNM
NEW MEXICO REGIONAL WEATHER ROUNDUP
NATIONAL WEATHER SERVICE ALBUQUERQUE NM
1100 PM MDT WED JUN 28 2017

NOTE: "FAIR" MEANS FEW OR NO CLOUDS BELOW 12,000 FEET AGL WITH NO
       SIGNIFICANT WEATHER OR OBSTRUCTIONS TO VISION.

      THIS PRODUCT IS RELEASED AS TWO VERSIONS.  ONE VERSION NEAR
      THE TOP OF THE HOUR CONTAINING PRELIMINARY DATA FROM ALBUQUERQUE
      AND OTHER STATIONS.  A FINAL VERSION WITH ADDITIONAL DATA IS
      ISSUED ABOUT 10 MINUTES AFTER THE HOUR.

NMZ501-503-504-510>518-290600-
NORTHWEST PLATEAU/NORTHCENTRAL MOUNTAINS

CITY           SKY/WX    TMP DP  RH WIND       PRES   REMARKS
FARMINGTON     FAIR      76  13   9 W12       29.92R
LOS ALAMOS     FAIR      75  12   9 W9        30.12S
SANTA FE       FAIR      68  10  10 NW6       30.03R
TAOS           FAIR      59   9  13 NE10      30.10F
ANGEL FIRE     FAIR      50  28  43 SW3       30.19S

$$
NMZ402-403-502-505>509-290600-
WESTCENTRAL MOUNTAINS/SOUTHWEST MOUNTAINS

CITY           SKY/WX    TMP DP  RH WIND       PRES   REMARKS
GALLUP         FAIR      74  17  11 SW12G22   30.10R
GRANTS         FAIR      71  14  11 W7        30.14R
SILVER CITY    FAIR      71  34  26 NW10      30.08R

$$
NMZ407-409-411-412-290600-
SOUTHERN DESERTS

CITY           SKY/WX    TMP DP  RH WIND       PRES   REMARKS
DEMING         FAIR      84  32  15 W12       29.97R
LAS CRUCES     FAIR      82  28  13 W10       29.96R
HOLLOMAN AFB   FAIR      78  20  11 S7        29.92R
ALAMOGORDO     FAIR      77  19  11 S7        29.93R
T OR C         FAIR      81  28  14 W9        29.95R

$$
NMZ519>523-290600-
CENTRAL VALLEYS/CENTRAL HIGHLANDS

CITY           SKY/WX    TMP DP  RH WIND       PRES   REMARKS
ALBUQUERQUE    FAIR      79  21  11 SW3       29.98R
DOUBLE EAGLE   FAIR      67  17  15 W9        30.02S
MORIARTY ARPT  FAIR      64  28  25 W8        30.05S
CLINES CORNERS FAIR      63  15  15 W14       30.10S
BELEN          FAIR      74  19  12 W6        29.97R
SOCORRO        FAIR      79  26  14 CALM      29.94S

$$
NMZ524>526-539-540-290600-
SOUTHCENTRAL MOUNTAINS

CITY           SKY/WX    TMP DP  RH WIND       PRES   REMARKS
RUIDOSO        FAIR      64  27  24 S6        30.15S

$$
NMZ527>531-290600-
NORTHEAST HIGHLANDS/NORTHEAST PLAINS

CITY           SKY/WX    TMP DP  RH WIND       PRES   REMARKS
LAS VEGAS      FAIR      70   9   9 SW7       30.06S
RATON          FAIR      68  17  14 S6        29.95S
CLAYTON        FAIR      68  47  46 SW8       29.83R

$$
NMZ532>537-290600-
EASTCENTRAL PLAINS

CITY           SKY/WX    TMP DP  RH WIND       PRES   REMARKS
SANTA ROSA     FAIR      74  22  14 SW10      29.89S
TUCUMCARI      FAIR      77  25  14 W9        29.79R
CANNON AFB     FAIR      78  58  50 S14       29.90R
CLOVIS AIRPORT NOT AVBL

$$
NMZ028-029-538-290600-
SOUTHEAST PLAINS

CITY           SKY/WX    TMP DP  RH WIND       PRES   REMARKS
ROSWELL        FAIR      80  31  16 W10       29.83R
ARTESIA        FAIR      82  30  15 S13       29.85R
CARLSBAD       FAIR      86  61  42 SE10G24   29.84R
HOBBS          FAIR      81  57  44 SE18      29.91S


$$




USA.gov is the U.S. government's official web portal to all federal, state and local government web resources and services.